883  
ASUS44 KHUN 161610  
RWRHUN  
 
WEATHER ROUNDUP FOR THE TENNESSEE VALLEY  
NATIONAL WEATHER SERVICE HUNTSVILLE AL  
1100 AM CDT TUE JUL 16 2019  
 
ALZ001>004-161700-  
NORTHWEST ALABAMA  
 
CITY SKY/WX TMP DP RH WIND PRES REMARKS
 
SHOALS AIRPORT FAIR 86 71 60 SW21G26 30.09S HX 91  

 
 
ALZ005>007-016-161700-  
NORTH CENTRAL ALABAMA  
 
CITY SKY/WX TMP DP RH WIND PRES REMARKS
 
CULLMAN AG STN N/A 82 N/A N/A SW8 N/A  
DECATUR AP FAIR 84 74 71 S12 30.13S HX 91  
HUNTSVILLE AP FAIR 84 74 71 SW13 30.13R HX 91  
MERIDIANVILLE CLOUDY 84 73 69 S14 30.13F HX 90  
VINEMONT AP FAIR 84 72 68 S14G20 30.17S  

 
 
ALZ008>010-161700-  
NORTHEAST ALABAMA  
 
CITY SKY/WX TMP DP RH WIND PRES REMARKS
 
ALBERTVILLE FAIR 84 70 61 S9 30.17R  
FORT PAYNE PTSUNNY 85 71 63 SW14 30.15S HX 90  
SCOTTSBORO AP FAIR 88 75 66 SW10 30.14S HX 97  

 
 
TNZ076-096-097-161700-  
SOUTHEASTERN MIDDLE TENNESSEE  
 
CITY SKY/WX TMP DP RH WIND PRES REMARKS
 
FAYETTEVILLE PTSUNNY 82 73 74 S14 30.13S  
TULLAHOMA MOSUNNY 82 72 69 S13G23 30.13S  
WINCHESTER MOSUNNY 84 70 61 SW17 30.14S  

 
   
..SURROUNDING SITES
 
 
 
CITY SKY/WX TMP DP RH WIND PRES REMARKS
 
ATLANTA FAIR 89 69 51 S10 30.18S HX 93  
ANNISTON FAIR 86 71 60 SW6 30.16S HX 91  
BIRMINGHAM PTSUNNY 84 70 62 SW12 30.18R  
CHATTANOOGA PTSUNNY 88 71 57 S10 30.14S HX 94  
CORINTH CLOUDY 82 73 74 S10G17 30.06R  
DALTON PTSUNNY 86 70 58 S6 30.18S HX 90  
GADSDEN FAIR 85 76 74 S8 30.16S HX 94  
GOLDEN TRNGL PTSUNNY 86 75 70 S15 30.10S HX 95  
HALEYVILLE PTSUNNY 82 73 74 S14G20 30.14F  
JACKSON TN CLOUDY 82 75 79 S17G26 30.01S  
MEMPHIS HVY RAIN 72 72 100 VRB5 30.01S FOG  
NASHVILLE PTSUNNY 85 69 58 S18G24 30.08S  
OXFORD MS PTSUNNY 82 73 74 S15G24 30.06S  
ROME FAIR 91 69 48 VRB3 30.14F HX 96  
SAVANNAH CLOUDY 82 73 74 S14G21 30.06R  
SELMER CLOUDY 81 73 78 S9G17 30.05R  
TUPELO CLOUDY 84 74 71 S13G20 30.07R HX 91  
TUSCALOOSA FAIR 86 75 69 SW12 30.12F HX 95  

 
 
 
 
CLICK HERE TO GO TO PREVIOUS BULLETINS.

The Nexlab AL Page
The Nexlab TN Page Main Text Page